[Iaude] MPEC T88: 2016 TB18 [a=1.08,e=0.08,i=1.5,H=25.2]

mpec at si.edu mpec at si.edu
Sun Oct 9 07:47:42 EDT 2016


M.P.E.C. 2016-T88                                Issued 2016 Oct.  9, 11:43 UT
 
     The Minor Planet Electronic Circulars contain information on unusual
         minor planets and routine data on comets.  They are published
    on behalf of Division F of the International Astronomical Union by the
          Minor Planet Center, Smithsonian Astrophysical Observatory,
                          Cambridge, MA 02138, U.S.A.

             Prepared using the Tamkin Foundation Computer Network

                              MPC at CFA.HARVARD.EDU
            URL http://www.minorplanetcenter.net/    ISSN 1523-6714


                                   2016 TB18
 
Observations:
     K16T18B* C2016 10 07.31183 01 18 44.03 +07 05 42.7          20.5 VoET088691
     K16T18B  C2016 10 07.33035 01 18 41.53 +07 05 15.4          20.8 VoET088691
     K16T18B  C2016 10 07.34887 01 18 39.03 +07 04 47.4          21.3 VoET088691
     K16T18B KC2016 10 08.24038401 17 02.27 +06 42 11.2          21.0 VuET088H21
     K16T18B KC2016 10 08.24587101 17 01.51 +06 42 03.1          21.5 VuET088H21
     K16T18B KC2016 10 08.25460801 17 00.35 +06 41 49.4          21.0 VuET088H21
     K16T18B KC2016 10 08.43237 01 16 37.79 +06 37 24.3                oET088291
     K16T18B KC2016 10 08.43414 01 16 37.53 +06 37 21.0          21.8 RoET088291
     K16T18B KC2016 10 08.43589 01 16 37.27 +06 37 18.6          22.0 RoET088291
     K16T18B KC2016 10 09.28103 01 15 05.93 +06 15 33.5          20.2 RoET088291
     K16T18B KC2016 10 09.28327 01 15 05.62 +06 15 30.1          20.1 RoET088291
     K16T18B KC2016 10 09.28552 01 15 05.31 +06 15 26.6          20.1 RoET088291
 
Observer details:
291 LPL/Spacewatch II.  Observers J. V. Scotti, R. S. McMillan.  1.8-m f/2.7
    reflector + CCD.
691 Steward Observatory, Kitt Peak.  Observer J. V. Scotti.  0.9-m f/3
    reflector + CCD.
H21 Astronomical Research Observatory, Westfield.  Observer R. Holmes.
    Measurers S. Foglia, L. Buzzi, T. Linder, R. Holmes.  0.81-m f/4.0
    astrograph + CCD.
 
Orbital elements:
2016 TB18                                                Earth MOID = 0.0105 AU
Epoch 2016 July 31.0 TT = JDT 2457600.5                 MPC
M 187.27234              (2000.0)            P               Q
n   0.88319452     Peri.  305.29246     -0.71674727     -0.69731607
a   1.0758832      Node   190.49847     +0.64814351     -0.66359932
e   0.0833665      Incl.    1.52936     +0.25726122     -0.27089895
P   1.12           H   25.2           G   0.15           U   7
Residuals in seconds of arc
161007 691  0.1-  0.2-    161008 H21  0.1-  0.3+    161008 291  0.4-  0.0
161007 691  0.0   0.2+    161008 H21  0.3+  0.1-    161009 291  0.1-  0.0
161007 691  0.0   0.0     161008 291  0.4+  0.2+    161009 291  0.0   0.1+
161008 H21  0.1+  0.0     161008 291  0.0   0.4-    161009 291  0.1+  0.0

Ephemeris:
2016 TB18                a,e,i = 1.08, 0.08, 2                   q = 0.9862
Date    TT    R. A. (2000) Decl.     Delta      r     Elong.  Phase     V
2016 09 09    01 40 18.4 +13 42 49   0.1767  1.1450   138.2    35.9    23.2
...
2016 09 24    01 36 45.5 +11 31 55   0.1399  1.1310   154.5    22.5    22.3
...
2016 10 02    01 27 29.3 +09 09 03   0.1250  1.1223   165.4    13.0    21.7
...
2016 10 08    01 17 28.7 +06 48 59   0.1166  1.1153   174.3     5.1    21.2
2016 10 09    01 15 37.0 +06 23 25   0.1155  1.1141   175.8     3.8    21.1
2016 10 10    01 13 42.8 +05 57 20   0.1144  1.1128   177.1     2.6    21.0
...
2016 10 16    01 01 42.6 +03 13 22   0.1095  1.1054   172.0     7.2    21.1
...
2016 10 24    00 45 38.3 -00 27 15   0.1068  1.0949   159.0    19.0    21.5
...
2016 11 08    00 24 12.9 -05 46 34   0.1110  1.0745   136.9    39.0    22.1

A. U. Tomatic                (C) Copyright 2016 MPC           M.P.E.C. 2016-T88




More information about the Iaude mailing list